Theta_e
297 300 300 300 302 303 304 305 305 303 303 303 303 302 301 301 299 298 299 296 296 297 299 302 311 317 323 327 330 331 333 333 332 331 330 329 326 324 323 324 323 321 323 324
298 299 299 300 301 302 303 303 303 302 301 302 302 301 301 301 300 299 299 299 296 297 298 301 305 313 323 328 330 330 332 333 332 332 331 329 328 325 323 322 320 322 322 322
298 298 299 299 301 302 302 302 302 302 302 301 302 303 302 301 301 301 301 300 298 296 297 298 302 307 321 326 328 329 331 332 332 331 330 329 327 325 323 322 322 323 323 322
298 298 298 299 300 301 301 301 302 302 303 303 301 302 299 299 299 300 300 300 299 296 297 298 300 308 321 325 325 325 330 330 330 331 329 328 325 323 323 323 323 323 323 323
298 297 297 297 300 302 301 301 302 302 303 304 303 304 300 299 300 299 300 300 299 297 297 298 299 308 318 323 326 323 327 329 329 329 329 327 326 325 324 324 324 324 322 322
297 296 297 299 301 300 300 301 302 303 304 303 302 303 301 299 301 300 299 298 298 296 297 298 299 304 317 321 325 325 325 322 327 329 329 328 326 325 323 323 323 323 322 322
295 296 298 299 299 300 301 300 295 296 297 300 301 304 303 302 303 303 303 301 297 297 296 297 298 301 310 322 323 324 323 322 322 328 328 327 326 324 323 323 322 322 322 322
293 295 296 297 299 301 302 304 302 304 300 302 303 306 307 299 296 297 298 301 299 296 297 298 298 300 308 322 322 322 322 322 320 327 328 327 326 326 326 325 323 323 323 323
295 295 296 297 300 301 299 302 298 300 301 304 307 306 306 295 293 294 298 303 297 296 296 298 298 302 309 322 324 323 323 320 321 327 327 325 325 324 324 323 323 323 322 321
296 296 296 298 297 300 298 297 296 299 299 301 305 305 296 292 290 291 307 303 296 296 297 298 299 304 316 321 323 325 324 324 325 325 323 322 322 322 321 321 317 316 313 313
296 296 297 297 294 296 296 293 294 296 297 303 305 302 294 290 289 299 308 304 297 298 301 304 310 307 307 306 306 306 309 311 308 309 311 308 307 309 308 306 305 305 305 304
297 296 295 297 296 296 294 292 293 294 300 297 302 301 291 287 288 302 306 306 304 304 304 303 302 301 300 300 300 299 300 299 298 298 301 299 298 297 297 296 295 295 296 295
297 296 295 295 298 294 294 291 291 295 296 295 293 293 289 285 286 293 300 301 300 300 299 298 298 297 297 296 296 296 295 294 294 294 294 293 293 292 292 292 291 292 291 291
296 297 296 297 294 293 292 292 290 290 286 291 291 288 287 284 283 286 294 296 296 296 296 296 295 295 294 294 294 293 293 293 292 292 291 291 290 290 289 290 289 289 289 288
296 293 296 293 294 294 292 292 290 287 287 288 288 288 286 283 282 284 288 290 290 291 292 292 291 291 291 291 291 291 290 290 290 290 289 288 288 288 287 286 286 286 285 284
295 290 290 292 296 295 295 293 291 288 286 287 289 289 285 282 281 281 283 285 286 287 287 287 288 288 288 288 287 287 287 287 287 287 287 286 286 285 285 284 284 283 282 282
295 296 288 289 294 298 295 293 291 289 286 285 284 284 284 282 279 278 279 280 280 283 284 284 283 284 284 284 284 284 284 284 284 284 284 284 284 283 282 282 281 280 279 279
295 297 289 288 288 299 298 294 291 290 288 284 283 282 283 283 280 278 277 277 277 278 280 281 281 280 281 281 281 281 281 281 281 281 281 281 281 281 280 279 277 277 277 276
293 292 289 290 289 301 297 294 290 288 291 285 283 281 281 287 286 279 277 276 276 276 276 277 278 278 278 279 279 279 279 278 278 278 278 278 278 277 277 276 276 276 275 275
294 290 288 282 287 295 295 290 289 289 295 285 282 280 280 284 284 278 276 275 275 275 274 275 276 276 276 276 277 277 277 276 276 276 275 275 275 275 275 274 274 274 274 274
292 288 286 284 288 292 288 287 288 295 294 284 283 281 279 277 274 273 274 274 273 273 274 273 273 273 274 275 275 274 274 274 275 275 274 274 274 273 273 273 273 273 273 273
295 293 289 283 290 301 286 288 290 284 280 279 277 278 277 275 274 273 274 274 273 272 272 272 272 271 272 273 273 273 272 272 273 274 274 274 274 273 273 273 272 272 272 271
293 293 290 289 288 283 279 281 280 276 276 276 279 280 279 277 275 274 273 272 272 271 271 271 270 270 270 271 272 271 271 273 273 273 273 272 272 272 272 272 272 271 271 270
293 292 292 290 288 282 280 281 279 279 281 281 280 279 278 276 275 274 273 272 271 270 269 269 269 269 269 270 271 271 271 272 272 271 271 272 272 272 271 271 271 271 271 270
292 292 293 292 289 284 283 283 281 280 280 279 278 278 277 275 273 272 272 271 270 269 268 268 268 267 268 269 270 270 271 271 271 271 270 270 270 270 270 270 270 270 270 271
290 292 293 291 290 288 287 283 282 281 280 279 277 276 275 274 273 271 270 269 268 268 268 268 268 268 268 269 270 270 271 272 271 270 269 269 269 269 269 269 269 269 269 269
Wind_Speed
4 3 8 11 12 17 18 18 20 19 17 18 18 21 19 16 9 13 16 8 8 9 9 15 17 10 10 19 20 30 37 35 37 35 32 26 27 29 30 36 36 34 35 36
4 11 12 7 9 14 15 21 23 20 16 12 15 21 16 13 12 11 16 16 8 6 7 8 10 13 12 19 19 23 28 34 37 31 31 28 28 29 31 34 36 35 35 35
6 12 15 12 10 16 16 16 19 20 18 16 15 21 17 16 18 18 19 19 8 10 9 7 6 10 15 18 20 17 23 32 36 32 28 25 24 18 22 28 32 36 34 37
5 5 13 13 14 11 13 5 6 12 9 6 4 9 8 5 12 12 18 17 12 10 8 7 7 8 13 19 22 20 22 32 25 31 31 32 29 20 21 28 34 35 33 33
7 14 14 7 6 9 9 9 11 15 14 9 13 6 5 8 13 17 16 17 12 10 9 9 9 10 12 16 25 22 18 18 29 28 29 30 24 25 25 28 31 33 33 32
14 5 2 3 16 15 17 16 16 12 6 5 10 9 4 2 3 5 6 9 11 10 10 9 11 15 13 20 22 23 19 9 16 28 31 31 26 22 23 27 28 32 33 33
11 6 2 4 9 3 7 5 4 4 1 5 3 8 10 13 14 12 15 14 9 8 9 9 8 7 12 14 20 21 20 18 14 26 30 30 27 28 27 25 25 30 34 36
4 8 7 4 4 7 12 3 3 7 2 3 5 4 1 19 25 25 22 17 9 8 7 8 8 7 10 15 19 20 20 12 5 22 29 28 28 27 30 32 31 34 33 36
4 5 4 8 7 5 10 9 13 7 15 5 3 2 4 29 28 22 20 11 8 9 8 9 6 7 11 13 22 25 19 11 4 19 19 20 25 25 26 28 30 27 26 25
3 7 4 11 4 3 11 12 6 3 5 5 2 6 10 30 32 34 5 6 7 8 7 6 5 6 4 8 15 9 8 0 3 10 4 10 6 5 6 6 4 3 3 4
4 3 7 5 5 13 9 10 5 4 3 3 6 5 15 25 27 24 13 8 5 7 10 10 12 19 21 25 34 30 26 25 24 21 22 25 23 21 20 21 19 17 14 12
2 3 4 3 6 6 9 14 5 1 4 4 3 4 23 26 25 19 15 16 19 21 19 17 16 23 26 29 33 31 28 36 30 32 34 34 33 33 35 33 31 29 29 25
8 3 5 7 1 10 7 21 17 5 3 11 6 7 19 24 26 25 19 21 23 22 21 20 19 18 27 29 33 34 32 34 34 35 39 38 38 37 37 35 35 36 33 33
6 2 3 2 3 8 12 22 21 13 4 7 8 13 23 28 26 23 19 24 24 23 23 20 20 20 30 32 36 38 39 33 34 39 40 40 39 37 39 41 41 41 42 39
3 3 3 4 8 1 17 14 19 18 15 6 10 13 20 22 20 18 17 22 25 25 25 21 19 20 28 33 37 37 39 36 34 40 38 39 38 39 40 39 43 41 40 39
3 3 4 4 1 0 12 21 17 16 17 7 11 14 18 17 16 19 23 23 24 23 21 20 24 24 28 32 35 37 37 36 35 38 36 35 36 37 37 37 39 42 41 40
4 3 3 5 4 4 4 19 12 10 16 8 10 9 14 16 20 24 21 21 20 20 19 21 21 26 31 34 33 35 34 36 37 39 38 36 36 37 36 37 39 39 37 37
6 5 2 3 5 9 4 11 3 5 21 21 13 13 10 6 14 20 21 19 20 18 18 18 25 30 32 31 34 34 38 38 39 37 37 34 35 36 37 39 36 34 35 35
5 2 4 4 4 3 2 10 7 6 12 20 18 18 15 5 7 22 21 18 16 15 21 24 28 30 31 31 31 36 41 38 38 36 34 33 35 35 33 33 31 30 32 32
5 5 4 4 5 4 4 14 9 1 11 17 17 17 18 15 14 7 16 17 18 24 25 25 26 30 33 29 30 36 34 35 34 31 31 34 35 35 34 31 31 28 28 26
7 5 4 4 3 3 2 16 5 6 2 7 11 12 14 9 3 5 11 16 21 22 24 25 31 30 26 26 30 36 33 32 26 31 34 35 36 35 32 32 32 31 30 30
2 4 3 2 5 4 11 3 6 2 2 2 6 6 5 5 5 6 8 14 20 22 24 25 25 27 29 29 31 32 31 27 32 35 37 36 35 33 33 33 32 31 30 29
2 2 2 1 4 3 3 3 2 2 3 2 1 3 4 6 7 9 9 14 17 19 19 21 22 27 31 31 30 31 25 31 34 36 35 33 32 31 30 31 27 28 29 27
1 3 2 2 3 2 2 0 1 2 3 3 4 5 5 6 6 7 9 11 13 16 18 19 24 26 28 30 31 31 29 30 33 34 31 30 30 29 29 30 28 27 25 26
3 4 4 1 2 3 3 3 5 4 5 6 8 7 7 7 5 5 9 11 12 13 17 20 21 24 26 27 27 26 26 29 32 32 30 30 29 27 26 26 22 23 22 20
5 6 4 4 7 4 3 8 8 8 5 7 7 6 7 7 8 9 9 9 10 14 18 24 26 28 27 27 26 25 25 26 29 30 28 28 28 27 27 26 24 20 16 17
Wind_Direction
292 271 254 268 251 263 280 276 268 270 279 277 270 269 271 269 249 261 267 238 234 251 270 298 245 235 242 240 212 189 188 186 184 183 176 188 188 193 200 208 211 213 213 212
310 277 279 270 291 283 272 275 271 277 268 258 260 261 264 256 246 237 258 268 221 237 270 282 302 229 227 218 211 197 192 187 186 188 184 187 189 196 200 208 209 211 213 211
267 266 299 303 286 291 275 267 277 276 294 272 273 274 263 249 245 243 247 250 219 217 243 252 262 250 231 214 211 226 193 192 186 183 178 182 185 191 195 208 211 213 214 215
268 274 320 316 302 296 287 255 285 293 289 279 152 288 244 241 233 228 238 240 226 199 219 229 234 241 219 220 215 221 212 199 195 180 178 178 179 177 196 208 212 215 214 219
268 306 332 324 286 307 264 301 283 277 276 283 235 264 265 228 245 241 226 231 226 194 200 223 226 226 232 226 219 219 209 204 203 182 179 181 182 190 201 207 214 217 217 224
292 287 212 266 298 287 278 292 279 260 246 247 240 191 306 198 282 309 247 238 220 190 205 216 215 227 225 221 215 206 203 237 249 198 200 198 196 187 196 205 211 219 219 224
329 314 9 328 320 296 325 293 319 337 349 229 352 182 260 330 356 335 319 294 230 192 194 201 210 206 219 200 193 187 189 196 233 209 195 197 198 196 200 207 217 217 222 225
340 328 11 331 337 296 306 340 350 298 268 273 105 244 234 10 342 326 312 285 253 178 190 198 198 203 211 197 197 195 196 208 347 204 207 205 208 216 217 226 220 226 233 238
309 274 284 298 314 327 332 324 295 245 256 249 210 349 187 346 328 322 280 245 192 175 184 202 200 195 210 191 183 186 188 201 229 251 210 205 199 198 206 216 228 236 239 249
285 293 295 322 15 319 341 345 329 337 337 318 327 69 354 344 330 327 35 159 154 158 172 188 146 178 109 101 104 134 205 271 211 233 144 110 112 120 136 177 119 93 39 317
278 233 303 5 9 357 2 355 314 291 255 296 339 94 7 340 330 325 31 40 87 81 61 71 74 68 69 67 68 67 76 84 79 91 80 74 70 74 72 66 57 57 52 45
332 285 291 264 282 338 36 358 319 268 340 322 273 73 5 345 338 360 49 72 73 73 74 66 61 63 61 62 66 64 65 72 72 72 80 74 69 68 69 68 66 63 67 65
358 335 326 350 331 11 13 4 358 314 335 23 21 338 345 348 359 1 40 61 63 63 64 63 61 61 62 63 66 64 62 67 71 74 75 73 71 71 70 70 73 76 72 77
353 301 256 264 125 28 7 13 12 17 44 331 22 353 355 355 359 356 25 54 62 62 62 63 60 63 62 65 67 63 60 62 69 72 72 71 71 70 73 77 74 74 77 70
27 295 324 310 151 308 34 13 15 23 8 37 322 25 8 359 350 357 26 49 57 56 58 58 59 61 59 63 64 65 63 61 64 69 69 70 71 74 75 73 74 71 68 67
339 289 17 306 40 252 26 21 15 19 8 353 1 38 359 0 7 23 31 37 48 52 54 54 54 59 59 61 64 65 63 62 65 67 65 69 72 74 75 74 73 76 71 67
322 311 21 303 302 280 357 15 14 23 28 351 17 326 335 10 21 24 20 32 40 44 48 53 53 55 55 57 61 63 66 67 65 67 65 66 70 68 66 68 70 71 69 68
292 312 82 282 5 38 306 20 352 6 29 18 9 357 353 48 44 35 26 30 31 30 38 45 52 53 54 62 66 69 67 64 63 61 63 64 68 69 70 71 70 71 69 65
209 321 40 67 1 172 34 4 354 7 28 14 3 360 360 2 72 37 19 24 30 31 39 47 53 57 57 59 67 71 68 67 64 61 62 65 70 71 71 69 67 68 70 67
40 49 85 18 65 57 262 336 336 193 33 8 5 5 2 4 59 17 357 11 25 40 42 47 53 59 57 54 66 70 67 66 63 64 67 74 77 77 75 75 75 75 71 67
342 6 62 1 62 317 348 320 309 53 252 1 359 10 18 43 34 291 351 23 33 40 45 51 55 53 52 58 68 67 65 61 68 74 77 75 75 76 77 78 76 74 73 71
336 351 345 2 42 17 7 353 72 168 14 9 356 17 24 22 12 14 18 29 33 37 40 47 57 54 55 60 69 67 63 74 84 86 83 78 78 76 75 73 68 65 61 57
14 146 185 139 209 252 304 126 296 135 133 315 62 36 63 62 52 47 42 38 42 42 43 47 57 60 65 70 71 72 73 87 88 86 83 82 80 73 68 65 58 52 49 47
278 168 120 93 251 259 244 335 127 155 132 106 90 81 78 84 66 58 60 53 50 47 44 53 63 62 63 77 84 89 91 91 89 86 81 79 76 73 69 60 57 51 43 43
208 136 133 289 287 317 235 197 155 141 118 104 80 98 113 115 82 75 70 60 58 59 62 68 70 73 77 84 84 88 92 91 86 83 79 75 73 72 71 69 55 54 51 43
181 176 173 208 174 156 158 168 162 157 152 140 134 109 97 121 113 106 88 81 80 78 85 85 88 89 85 84 84 86 89 90 89 86 80 75 71 67 64 63 63 56 50 40